Overview Statistics Trail Chart Weather Telemetry Raw packets
 

This is the latest recevied weather packets stored in our database for station/object KB1MS. If no packets are shown the sender has not sent any weather packets the latest 10 day(s).

<< 1 2 3 4 5 >>
Time Temp. Humidity Pressure Rain* Wind** Luminosity Snow
1788614273 20° C 73% 1009.3 hPa 0 mm - 133 W/m² -
1788613969 20° C 74% 1009.3 hPa 0 mm - 68 W/m² -
1788613664 20° C 75% 1009.1 hPa 0 mm - 49 W/m² -
1788613363 20° C 74% 1008.8 hPa 0 mm - 49 W/m² -
1788613058 20° C 74% 1009.1 hPa 0 mm - 48 W/m² -
1788612753 19.44° C 75% 1009.2 hPa 0 mm - 85 W/m² -
1788612450 19.44° C 75% 1009.2 hPa 0 mm - 57 W/m² -
1788612146 19.44° C 75% 1009.2 hPa 0 mm - 45 W/m² -
1788611846 18.89° C 77% 1009.1 hPa 0 mm - 39 W/m² -
1788611543 18.89° C 77% 1009.1 hPa 0 mm - 37 W/m² -
1788611243 18.89° C 77% 1009 hPa 0 mm - 36 W/m² -
1788610937 18.89° C 78% 1008.9 hPa 0 mm - 35 W/m² -
1788610632 18.33° C 78% 1008.7 hPa 0 mm - 35 W/m² -
1788610328 18.33° C 79% 1008.8 hPa 0 mm - 34 W/m² -
1788610027 18.33° C 79% 1008.7 hPa 0 mm - 33 W/m² -
1788609722 17.78° C 80% 1008.8 hPa 0 mm - 33 W/m² -
1788609422 17.78° C 80% 1008.8 hPa 0 mm - 32 W/m² -
1788609117 17.78° C 81% 1008.7 hPa 0 mm - 31 W/m² -
1788608816 17.78° C 81% 1008.8 hPa 0 mm - 31 W/m² -
1788608515 17.22° C 82% 1008.6 hPa 0 mm - 30 W/m² -
1788608209 16.67° C 83% 1008.7 hPa 0 mm - 29 W/m² -
1788607905 16.67° C 84% 1008.6 hPa 0 mm - 28 W/m² -
1788607604 16.67° C 84% 1008.6 hPa 0 mm - 27 W/m² -
1788607301 16.67° C 85% 1008.5 hPa 0 mm - 26 W/m² -
1788607000 16.11° C 84% 1008.4 hPa 0 mm - 25 W/m² -

* Rain latest hour (hover to see other rain measurements)
** Current wind speed in m/s (hover to see current wind gust speed)